Time,TemperatureF,DewpointF,PressureIn,WindDirection,WindDirectionDegrees,WindSpeedMPH,WindSpeedGustMPH,Humidity,HourlyPrecipIn,Conditions,Clouds,dailyrainin,SoftwareType,DateUTC
2013-06-18 00:03:00,69.5,67.3,30.04,South,175,0.0,0.0,93,0.00,RA,RA,0.00,WeatherDisplay:10.37,2013-06-18 05:03:00,
2013-06-18 00:09:00,69.3,66.8,30.04,SSE,152,0.0,0.0,92,0.00,RA,RA,0.00,WeatherDisplay:10.37,2013-06-18 05:09:00,
2013-06-18 00:15:00,69.5,66.7,30.04,SSE,159,2.0,5.0,91,0.00,SCT,SCT,0.00,WeatherDisplay:10.37,2013-06-18 05:15:00,
2013-06-18 00:21:00,69.6,66.5,30.04,SSE,163,1.0,4.0,90,0.00,SCT,SCT,0.00,WeatherDisplay:10.37,2013-06-18 05:21:00,
2013-06-18 00:27:00,69.7,66.3,30.04,SSE,160,0.0,3.0,89,0.00,SCT,SCT,0.00,WeatherDisplay:10.37,2013-06-18 05:27:00,
2013-06-18 00:33:00,69.5,66.1,30.04,SE,137,0.0,0.0,89,0.00,SCT,SCT,0.00,WeatherDisplay:10.37,2013-06-18 05:33:00,
2013-06-18 00:39:00,69.3,65.9,30.04,SE,128,0.0,0.0,89,0.00,SCT,SCT,0.00,WeatherDisplay:10.37,2013-06-18 05:39:00,
2013-06-18 00:45:00,69.1,66.3,30.04,SSE,165,0.0,0.0,91,0.00,SCT,SCT,0.00,WeatherDisplay:10.37,2013-06-18 05:45:00,
2013-06-18 00:51:00,68.9,66.1,30.03,SSE,164,0.0,0.0,91,0.00,SCT,SCT,0.00,WeatherDisplay:10.37,2013-06-18 05:51:00,
2013-06-18 00:57:00,68.6,66.2,30.03,SSE,168,0.0,2.0,92,0.00,SCT,SCT,0.00,WeatherDisplay:10.37,2013-06-18 05:57:00,
2013-06-18 01:03:00,68.6,66.5,30.03,South,188,2.0,5.0,93,0.00,SCT,SCT,0.00,WeatherDisplay:10.37,2013-06-18 06:03:00,
2013-06-18 01:09:00,68.4,66.3,30.03,SE,140,0.0,0.0,93,0.00,SCT,SCT,0.00,WeatherDisplay:10.37,2013-06-18 06:09:00,
2013-06-18 01:15:00,68.0,65.9,30.03,SSE,149,0.0,0.0,93,0.00,SCT,SCT,0.00,WeatherDisplay:10.37,2013-06-18 06:15:00,
2013-06-18 01:21:00,67.9,65.8,30.03,South,189,0.0,0.0,93,0.00,SCT,SCT,0.00,WeatherDisplay:10.37,2013-06-18 06:21:00,
2013-06-18 01:27:00,67.6,65.5,30.03,SE,129,0.0,0.0,93,0.00,SCT,SCT,0.00,WeatherDisplay:10.37,2013-06-18 06:27:00,
2013-06-18 01:33:00,67.3,65.3,30.03,East,93,0.0,0.0,93,0.00,SCT,SCT,0.00,WeatherDisplay:10.37,2013-06-18 06:33:00,
2013-06-18 01:39:00,67.3,65.8,30.03,ESE,115,0.0,0.0,95,0.00,SCT,SCT,0.00,WeatherDisplay:10.37,2013-06-18 06:39:00,
2013-06-18 01:45:00,67.0,65.5,30.03,SSE,159,0.0,0.0,95,0.00,SCT,SCT,0.00,WeatherDisplay:10.37,2013-06-18 06:45:00,
2013-06-18 01:51:00,67.0,65.8,30.03,South,176,0.0,0.0,96,0.00,SCT,SCT,0.00,WeatherDisplay:10.37,2013-06-18 06:51:00,
2013-06-18 01:57:00,67.0,65.8,30.03,SW,230,0.0,3.0,96,0.00,SCT,SCT,0.00,WeatherDisplay:10.37,2013-06-18 06:57:00,
2013-06-18 02:03:00,67.1,65.9,30.02,WSW,238,0.0,2.0,96,0.00,SCT,SCT,0.00,WeatherDisplay:10.37,2013-06-18 07:03:00,
2013-06-18 02:09:00,67.3,66.1,30.02,West,263,2.0,3.0,96,0.00,SCT,SCT,0.00,WeatherDisplay:10.37,2013-06-18 07:09:00,
2013-06-18 02:15:00,67.6,66.1,30.02,West,280,2.0,3.0,95,0.00,SCT,SCT,0.00,WeatherDisplay:10.37,2013-06-18 07:15:00,
2013-06-18 02:21:00,68.0,66.5,30.02,WNW,294,3.0,5.0,95,0.00,SCT,SCT,0.00,WeatherDisplay:10.37,2013-06-18 07:21:00,
2013-06-18 02:27:00,68.2,66.4,30.02,WNW,289,1.0,6.0,94,0.00,SCT,SCT,0.00,WeatherDisplay:10.37,2013-06-18 07:27:00,
2013-06-18 02:33:00,68.6,66.8,30.02,West,281,0.0,3.0,94,0.00,BKN,BKN,0.00,WeatherDisplay:10.37,2013-06-18 07:33:00,
2013-06-18 02:39:00,68.4,66.6,30.02,WSW,257,0.0,0.0,94,0.00,BKN,BKN,0.00,WeatherDisplay:10.37,2013-06-18 07:39:00,
2013-06-18 02:45:00,68.4,66.6,30.02,WSW,254,0.0,0.0,94,0.00,BKN,BKN,0.00,WeatherDisplay:10.37,2013-06-18 07:45:00,
2013-06-18 02:51:00,68.0,66.2,30.01,WNW,290,0.0,0.0,94,0.00,BKN,BKN,0.00,WeatherDisplay:10.37,2013-06-18 07:51:00,
2013-06-18 02:57:00,67.9,66.4,30.01,NW,304,0.0,5.0,95,0.00,BKN,BKN,0.00,WeatherDisplay:10.37,2013-06-18 07:57:00,
2013-06-18 03:03:00,68.2,66.7,30.01,West,274,0.0,0.0,95,0.00,BKN,BKN,0.00,WeatherDisplay:10.37,2013-06-18 08:03:00,
2013-06-18 03:09:00,68.1,66.3,30.01,NW,305,0.0,0.0,94,0.00,BKN,BKN,0.00,WeatherDisplay:10.37,2013-06-18 08:09:00,
2013-06-18 03:15:00,67.9,66.1,30.02,NW,307,0.0,0.0,94,0.00,BKN,BKN,0.00,WeatherDisplay:10.37,2013-06-18 08:15:00,
2013-06-18 03:21:00,67.7,66.2,30.02,WNW,303,3.0,6.0,95,0.00,BKN,BKN,0.00,WeatherDisplay:10.37,2013-06-18 08:21:00,
2013-06-18 03:27:00,67.5,66.0,30.01,NW,304,0.0,3.0,95,0.00,BKN,BKN,0.00,WeatherDisplay:10.37,2013-06-18 08:27:00,
2013-06-18 03:33:00,67.3,65.8,30.01,NNW,334,0.0,0.0,95,0.00,BKN,BKN,0.00,WeatherDisplay:10.37,2013-06-18 08:33:00,
2013-06-18 03:39:00,67.1,65.6,30.01,South,182,0.0,0.0,95,0.00,BKN,BKN,0.00,WeatherDisplay:10.37,2013-06-18 08:39:00,
2013-06-18 03:45:00,66.8,65.6,30.01,ESE,117,0.0,0.0,96,0.00,BKN,BKN,0.00,WeatherDisplay:10.37,2013-06-18 08:45:00,
2013-06-18 03:51:00,66.3,65.1,30.02,NNE,30,0.0,0.0,96,0.00,BKN,BKN,0.00,WeatherDisplay:10.37,2013-06-18 08:51:00,
2013-06-18 03:57:00,66.2,65.6,30.02,ESE,111,0.0,0.0,98,0.00,BKN,BKN,0.00,WeatherDisplay:10.37,2013-06-18 08:57:00,
2013-06-18 04:03:00,65.9,65.3,30.02,East,81,0.0,0.0,98,0.00,BKN,BKN,0.00,WeatherDisplay:10.37,2013-06-18 09:03:00,
2013-06-18 04:09:00,65.7,65.4,30.02,ENE,68,0.0,0.0,99,0.00,BKN,BKN,0.00,WeatherDisplay:10.37,2013-06-18 09:09:00,
2013-06-18 04:15:00,65.6,65.3,30.02,ENE,71,0.0,0.0,99,0.00,BKN,BKN,0.00,WeatherDisplay:10.37,2013-06-18 09:15:00,
2013-06-18 04:21:00,65.3,65.3,30.02,East,82,0.0,0.0,100,0.00,BKN,BKN,0.00,WeatherDisplay:10.37,2013-06-18 09:21:00,
2013-06-18 04:27:00,65.2,65.2,30.02,East,90,0.0,0.0,100,0.00,BKN,BKN,0.00,WeatherDisplay:10.37,2013-06-18 09:27:00,
2013-06-18 04:33:00,64.9,64.9,30.02,East,95,0.0,0.0,100,0.00,BKN,BKN,0.00,WeatherDisplay:10.37,2013-06-18 09:33:00,
2013-06-18 04:39:00,64.7,64.7,30.03,East,84,0.0,0.0,100,0.00,BKN,BKN,0.00,WeatherDisplay:10.37,2013-06-18 09:39:00,
2013-06-18 04:45:00,64.6,64.6,30.03,NNW,347,0.0,0.0,100,0.00,BKN,BKN,0.00,WeatherDisplay:10.37,2013-06-18 09:45:00,
2013-06-18 04:51:00,64.3,64.3,30.02,NNE,32,0.0,0.0,100,0.00,BKN,BKN,0.00,WeatherDisplay:10.37,2013-06-18 09:51:00,
2013-06-18 04:57:00,64.3,64.3,30.02,ENE,60,0.0,0.0,100,0.00,BKN,BKN,0.00,WeatherDisplay:10.37,2013-06-18 09:57:00,
2013-06-18 05:03:00,64.4,64.4,30.02,NE,35,0.0,0.0,100,0.00,BKN,BKN,0.00,WeatherDisplay:10.37,2013-06-18 10:03:00,
2013-06-18 05:09:00,64.1,64.1,30.02,NNE,23,0.0,0.0,100,0.00,BKN,BKN,0.00,WeatherDisplay:10.37,2013-06-18 10:09:00,
2013-06-18 05:15:00,64.1,64.1,30.02,NNE,25,0.0,0.0,100,0.00,BKN,BKN,0.00,WeatherDisplay:10.37,2013-06-18 10:15:00,
2013-06-18 05:21:00,64.1,64.1,30.02,NNE,22,0.0,0.0,100,0.00,BKN,BKN,0.00,WeatherDisplay:10.37,2013-06-18 10:21:00,
2013-06-18 05:27:00,63.9,63.9,30.02,North,357,0.0,0.0,100,0.00,BKN,BKN,0.00,WeatherDisplay:10.37,2013-06-18 10:27:00,
2013-06-18 05:33:00,63.9,63.9,30.02,NE,34,0.0,0.0,100,0.00,BKN,BKN,0.00,WeatherDisplay:10.37,2013-06-18 10:33:00,
2013-06-18 05:39:00,63.9,63.9,30.02,ENE,60,0.0,0.0,100,0.00,BKN,BKN,0.00,WeatherDisplay:10.37,2013-06-18 10:39:00,
2013-06-18 05:45:00,63.7,63.7,30.02,North,7,0.0,0.0,100,0.00,BKN,BKN,0.00,WeatherDisplay:10.37,2013-06-18 10:45:00,
2013-06-18 05:51:00,63.7,63.7,30.03,ENE,73,0.0,0.0,100,0.00,BKN,BKN,0.00,WeatherDisplay:10.37,2013-06-18 10:51:00,
2013-06-18 05:57:00,63.5,63.5,30.03,North,4,0.0,0.0,100,0.00,BKN,BKN,0.00,WeatherDisplay:10.37,2013-06-18 10:57:00,
2013-06-18 06:03:00,63.5,63.5,30.03,NNW,337,0.0,0.0,100,0.00,BKN,BKN,0.00,WeatherDisplay:10.37,2013-06-18 11:03:00,
2013-06-18 06:09:00,63.4,63.4,30.03,NNW,337,0.0,0.0,100,0.00,BKN,BKN,0.00,WeatherDisplay:10.37,2013-06-18 11:09:00,
2013-06-18 06:15:00,63.4,63.4,30.03,NNW,337,0.0,0.0,100,0.00,BKN,BKN,0.00,WeatherDisplay:10.37,2013-06-18 11:15:00,
2013-06-18 06:21:00,63.4,63.4,30.03,NNW,337,0.0,0.0,100,0.00,BKN,BKN,0.00,WeatherDisplay:10.37,2013-06-18 11:21:00,
2013-06-18 06:27:00,63.3,63.3,30.02,WNW,292,0.0,0.0,100,0.00,BKN,BKN,0.00,WeatherDisplay:10.37,2013-06-18 11:27:00,
2013-06-18 06:33:00,63.5,63.5,30.02,WNW,287,0.0,0.0,100,0.00,BKN,BKN,0.00,WeatherDisplay:10.37,2013-06-18 11:33:00,
2013-06-18 06:39:00,63.7,63.7,30.03,WNW,297,0.0,0.0,100,0.00,BKN,BKN,0.00,WeatherDisplay:10.37,2013-06-18 11:39:00,
2013-06-18 06:45:00,63.9,63.9,30.03,WSW,251,0.0,0.0,100,0.00,BKN,BKN,0.00,WeatherDisplay:10.37,2013-06-18 11:45:00,
2013-06-18 06:51:00,63.9,63.9,30.04,SW,219,0.0,0.0,100,0.00,BKN,BKN,0.00,WeatherDisplay:10.37,2013-06-18 11:51:00,
2013-06-18 06:57:00,63.8,63.8,30.04,NW,309,0.0,0.0,100,0.00,BKN,BKN,0.00,WeatherDisplay:10.37,2013-06-18 11:57:00,
2013-06-18 07:03:00,64.3,64.3,30.04,NW,309,0.0,0.0,100,0.00,BKN,BKN,0.00,WeatherDisplay:10.37,2013-06-18 12:03:00,
2013-06-18 07:09:00,64.4,64.4,30.04,WNW,303,0.0,0.0,100,0.00,BKN,BKN,0.00,WeatherDisplay:10.37,2013-06-18 12:09:00,
2013-06-18 07:15:00,64.6,64.6,30.04,NW,309,0.0,0.0,100,0.00,BKN,BKN,0.00,WeatherDisplay:10.37,2013-06-18 12:15:00,
2013-06-18 07:21:00,64.8,64.8,30.04,WNW,302,0.0,0.0,100,0.00,BKN,BKN,0.00,WeatherDisplay:10.37,2013-06-18 12:21:00,
2013-06-18 07:27:00,65.2,65.2,30.04,WNW,298,0.0,0.0,100,0.00,BKN,BKN,0.00,WeatherDisplay:10.37,2013-06-18 12:27:00,
2013-06-18 07:33:00,65.5,65.5,30.04,NW,304,0.0,0.0,100,0.00,BKN,BKN,0.00,WeatherDisplay:10.37,2013-06-18 12:33:00,
2013-06-18 07:39:00,65.7,65.7,30.04,NW,306,0.0,0.0,100,0.00,BKN,BKN,0.00,WeatherDisplay:10.37,2013-06-18 12:39:00,
2013-06-18 07:45:00,66.0,66.0,30.04,NW,311,0.0,0.0,100,0.00,BKN,BKN,0.00,WeatherDisplay:10.37,2013-06-18 12:45:00,
2013-06-18 07:51:00,66.5,66.5,30.05,WNW,300,0.0,0.0,100,0.00,BKN,BKN,0.00,WeatherDisplay:10.37,2013-06-18 12:51:00,
2013-06-18 07:57:00,67.0,67.0,30.05,WNW,298,5.0,6.0,100,0.00,BKN,BKN,0.00,WeatherDisplay:10.37,2013-06-18 12:57:00,
2013-06-18 08:03:00,67.8,67.6,30.05,WNW,291,8.0,11.0,99,0.00,BKN,BKN,0.00,WeatherDisplay:10.37,2013-06-18 13:03:00,
2013-06-18 08:09:00,68.8,68.2,30.05,WNW,296,6.0,7.0,98,0.00,BKN,BKN,0.00,WeatherDisplay:10.37,2013-06-18 13:09:00,
2013-06-18 08:15:00,69.2,68.6,30.05,NW,304,5.0,10.0,98,0.00,BKN,BKN,0.00,WeatherDisplay:10.37,2013-06-18 13:15:00,
2013-06-18 08:21:00,69.8,69.2,30.05,WNW,300,5.0,8.0,98,0.00,BKN,BKN,0.00,WeatherDisplay:10.37,2013-06-18 13:21:00,
2013-06-18 08:27:00,70.4,68.9,30.05,WNW,287,6.0,9.0,95,0.00,BKN,BKN,0.00,WeatherDisplay:10.37,2013-06-18 13:27:00,
2013-06-18 08:33:00,70.6,69.1,30.05,WNW,301,6.0,10.0,95,0.00,BKN,BKN,0.00,WeatherDisplay:10.37,2013-06-18 13:33:00,
2013-06-18 08:39:00,71.1,69.6,30.05,WNW,297,7.0,8.0,95,0.00,BKN,BKN,0.00,WeatherDisplay:10.37,2013-06-18 13:39:00,
2013-06-18 08:45:00,71.5,70.0,30.05,WNW,298,3.0,8.0,95,0.00,BKN,BKN,0.00,WeatherDisplay:10.37,2013-06-18 13:45:00,
2013-06-18 08:51:00,72.0,70.1,30.05,WNW,289,2.0,7.0,94,0.00,BKN,BKN,0.00,WeatherDisplay:10.37,2013-06-18 13:51:00,
2013-06-18 08:57:00,72.1,69.9,30.05,WNW,291,5.0,7.0,93,0.00,BKN,BKN,0.00,WeatherDisplay:10.37,2013-06-18 13:57:00,
2013-06-18 09:03:00,72.5,70.4,30.05,WNW,298,5.0,6.0,93,0.00,BKN,BKN,0.00,WeatherDisplay:10.37,2013-06-18 14:03:00,
2013-06-18 09:09:00,73.4,70.9,30.05,NW,310,0.0,0.0,92,0.00,BKN,BKN,0.00,WeatherDisplay:10.37,2013-06-18 14:09:00,
2013-06-18 09:15:00,73.9,70.4,30.05,WNW,298,6.0,8.0,89,0.00,BKN,BKN,0.00,WeatherDisplay:10.37,2013-06-18 14:15:00,
2013-06-18 09:21:00,75.1,71.0,30.05,WNW,298,6.0,7.0,87,0.00,BKN,BKN,0.00,WeatherDisplay:10.37,2013-06-18 14:21:00,
2013-06-18 09:27:00,76.0,71.5,30.05,WNW,303,1.0,5.0,86,0.00,BKN,BKN,0.00,WeatherDisplay:10.37,2013-06-18 14:27:00,
2013-06-18 09:33:00,77.6,69.8,30.05,NW,318,6.0,8.0,77,0.00,BKN,BKN,0.00,WeatherDisplay:10.37,2013-06-18 14:33:00,
2013-06-18 09:39:00,78.1,70.3,30.05,NNW,331,1.0,6.0,77,0.00,BKN,BKN,0.00,WeatherDisplay:10.37,2013-06-18 14:39:00,
2013-06-18 09:45:00,78.8,69.8,30.05,NNE,18,0.0,0.0,74,0.00,BKN,BKN,0.00,WeatherDisplay:10.37,2013-06-18 14:45:00,
2013-06-18 09:51:00,80.4,70.1,30.06,NNE,24,1.0,5.0,71,0.00,BKN,BKN,0.00,WeatherDisplay:10.37,2013-06-18 14:51:00,
2013-06-18 09:57:00,80.8,68.8,30.06,NW,311,8.0,9.0,67,0.00,BKN,BKN,0.00,WeatherDisplay:10.37,2013-06-18 14:57:00,
2013-06-18 10:03:00,80.1,69.1,30.05,WNW,298,0.0,0.0,69,0.00,SCT,SCT,0.00,WeatherDisplay:10.37,2013-06-18 15:03:00,
2013-06-18 10:09:00,81.9,68.0,30.05,NW,313,6.0,8.0,63,0.00,SCT,SCT,0.00,WeatherDisplay:10.37,2013-06-18 15:09:00,
2013-06-18 10:15:00,82.7,68.9,30.06,WNW,291,0.0,0.0,63,0.00,SCT,SCT,0.00,WeatherDisplay:10.37,2013-06-18 15:15:00,
2013-06-18 10:21:00,82.8,69.3,30.06,ENE,68,3.0,5.0,64,0.00,SCT,SCT,0.00,WeatherDisplay:10.37,2013-06-18 15:21:00,
2013-06-18 10:27:00,82.4,68.0,30.05,NW,324,5.0,7.0,62,0.00,SCT,SCT,0.00,WeatherDisplay:10.37,2013-06-18 15:27:00,
2013-06-18 10:33:00,83.0,68.2,30.05,WNW,300,0.0,4.0,61,0.00,SCT,SCT,0.00,WeatherDisplay:10.37,2013-06-18 15:33:00,
2013-06-18 10:39:00,82.3,67.0,30.05,NNW,332,0.0,3.0,60,0.00,SCT,SCT,0.00,WeatherDisplay:10.37,2013-06-18 15:39:00,
2013-06-18 10:45:00,80.1,67.2,30.05,West,264,0.0,6.0,65,0.00,SCT,SCT,0.00,WeatherDisplay:10.37,2013-06-18 15:45:00,
2013-06-18 10:51:00,80.5,67.6,30.05,WNW,284,0.0,0.0,65,0.00,SCT,SCT,0.00,WeatherDisplay:10.37,2013-06-18 15:51:00,
2013-06-18 10:57:00,80.7,65.5,30.05,NNW,344,0.0,0.0,60,0.00,SCT,SCT,0.00,WeatherDisplay:10.37,2013-06-18 15:57:00,
2013-06-18 11:03:00,80.6,65.4,30.05,NW,321,5.0,8.0,60,0.00,BKN,BKN,0.00,WeatherDisplay:10.37,2013-06-18 16:03:00,
2013-06-18 11:09:00,80.8,62.6,30.05,WNW,285,1.0,7.0,54,0.00,BKN,BKN,0.00,WeatherDisplay:10.37,2013-06-18 16:09:00,
2013-06-18 11:15:00,80.0,63.9,30.05,SW,227,2.0,5.0,58,0.00,BKN,BKN,0.00,WeatherDisplay:10.37,2013-06-18 16:15:00,
2013-06-18 11:21:00,80.9,64.2,30.05,ESE,116,0.0,2.0,57,0.00,BKN,BKN,0.00,WeatherDisplay:10.37,2013-06-18 16:21:00,
2013-06-18 11:27:00,82.9,64.0,30.06,SSW,205,0.0,0.0,53,0.00,BKN,BKN,0.00,WeatherDisplay:10.37,2013-06-18 16:27:00,
2013-06-18 11:33:00,82.1,64.3,30.06,NNW,346,0.0,5.0,55,0.00,BKN,BKN,0.00,WeatherDisplay:10.37,2013-06-18 16:33:00,
2013-06-18 11:39:00,81.7,63.4,30.05,SE,142,0.0,3.0,54,0.00,BKN,BKN,0.00,WeatherDisplay:10.37,2013-06-18 16:39:00,
2013-06-18 11:45:00,82.3,62.3,30.05,SSE,150,2.0,4.0,51,0.00,BKN,BKN,0.00,WeatherDisplay:10.37,2013-06-18 16:45:00,
2013-06-18 11:51:00,83.1,58.9,30.05,ESE,120,5.0,6.0,44,0.00,BKN,BKN,0.00,WeatherDisplay:10.37,2013-06-18 16:51:00,
2013-06-18 11:57:00,85.3,58.2,30.05,East,90,0.0,4.0,40,0.00,BKN,BKN,0.00,WeatherDisplay:10.37,2013-06-18 16:57:00,
2013-06-18 12:03:00,83.6,56.7,30.05,South,172,0.0,3.0,40,0.00,BKN,BKN,0.00,WeatherDisplay:10.37,2013-06-18 17:03:00,
2013-06-18 12:09:00,85.2,56.7,30.05,WNW,289,3.0,5.0,38,0.00,BKN,BKN,0.00,WeatherDisplay:10.37,2013-06-18 17:09:00,
2013-06-18 12:15:00,85.7,57.9,30.05,WNW,295,1.0,5.0,39,0.00,BKN,BKN,0.00,WeatherDisplay:10.37,2013-06-18 17:15:00,
2013-06-18 12:21:00,86.8,61.0,30.05,NW,306,1.0,3.0,42,0.00,BKN,BKN,0.00,WeatherDisplay:10.37,2013-06-18 17:21:00,
2013-06-18 12:27:00,87.1,61.2,30.04,ENE,68,2.0,3.0,42,0.00,BKN,BKN,0.00,WeatherDisplay:10.37,2013-06-18 17:27:00,
2013-06-18 12:33:00,86.5,60.6,30.04,SW,236,2.0,5.0,42,0.00,BKN,BKN,0.00,WeatherDisplay:10.37,2013-06-18 17:33:00,
2013-06-18 12:39:00,86.4,60.0,30.04,West,270,6.0,8.0,41,0.00,BKN,BKN,0.00,WeatherDisplay:10.37,2013-06-18 17:39:00,
2013-06-18 12:45:00,87.7,61.1,30.04,NNW,329,3.0,5.0,41,0.00,BKN,BKN,0.00,WeatherDisplay:10.37,2013-06-18 17:45:00,
2013-06-18 12:51:00,89.0,61.5,30.04,NNW,348,2.0,4.0,40,0.00,BKN,BKN,0.00,WeatherDisplay:10.37,2013-06-18 17:51:00,
2013-06-18 12:57:00,88.2,61.5,30.04,WNW,297,2.0,6.0,41,0.00,BKN,BKN,0.00,WeatherDisplay:10.37,2013-06-18 17:57:00,
2013-06-18 13:03:00,87.3,62.7,30.03,East,90,3.0,7.0,44,0.00,BKN,BKN,0.00,WeatherDisplay:10.37,2013-06-18 18:03:00,
2013-06-18 13:09:00,86.9,61.0,30.03,ESE,103,3.0,5.0,42,0.00,BKN,BKN,0.00,WeatherDisplay:10.37,2013-06-18 18:09:00,
2013-06-18 13:15:00,89.2,61.0,30.03,SW,229,2.0,6.0,39,0.00,BKN,BKN,0.00,WeatherDisplay:10.37,2013-06-18 18:15:00,
2013-06-18 13:21:00,88.3,60.9,30.03,NNE,23,5.0,7.0,40,0.00,BKN,BKN,0.00,WeatherDisplay:10.37,2013-06-18 18:21:00,
2013-06-18 13:27:00,89.0,59.4,30.03,NE,48,3.0,5.0,37,0.00,BKN,BKN,0.00,WeatherDisplay:10.37,2013-06-18 18:27:00,
2013-06-18 13:33:00,88.5,58.1,30.03,ENE,73,6.0,10.0,36,0.00,BKN,BKN,0.00,WeatherDisplay:10.37,2013-06-18 18:33:00,
2013-06-18 13:39:00,89.0,58.6,30.03,ESE,107,3.0,5.0,36,0.00,BKN,BKN,0.00,WeatherDisplay:10.37,2013-06-18 18:39:00,
2013-06-18 13:45:00,89.3,58.8,30.03,SSE,153,6.0,7.0,36,0.00,BKN,BKN,0.00,WeatherDisplay:10.37,2013-06-18 18:45:00,
2013-06-18 13:51:00,88.3,58.7,30.02,ESE,110,3.0,7.0,37,0.00,BKN,BKN,0.00,WeatherDisplay:10.37,2013-06-18 18:51:00,
2013-06-18 13:57:00,89.8,56.8,30.02,WNW,299,2.0,7.0,33,0.00,BKN,BKN,0.00,WeatherDisplay:10.37,2013-06-18 18:57:00,
2013-06-18 14:03:00,89.9,58.6,30.02,NNW,341,5.0,5.0,35,0.00,SCT,SCT,0.00,WeatherDisplay:10.37,2013-06-18 19:03:00,
2013-06-18 14:09:00,89.8,59.3,30.02,ENE,70,2.0,3.0,36,0.00,SCT,SCT,0.00,WeatherDisplay:10.37,2013-06-18 19:09:00,
2013-06-18 14:15:00,89.7,57.6,30.01,ENE,66,3.0,7.0,34,0.00,SCT,SCT,0.00,WeatherDisplay:10.37,2013-06-18 19:15:00,
2013-06-18 14:21:00,89.0,56.9,30.01,ENE,73,7.0,9.0,34,0.00,SCT,SCT,0.00,WeatherDisplay:10.37,2013-06-18 19:21:00,
2013-06-18 14:27:00,89.1,59.4,30.01,East,83,3.0,5.0,37,0.00,SCT,SCT,0.00,WeatherDisplay:10.37,2013-06-18 19:27:00,
2013-06-18 14:33:00,90.1,56.3,30.01,East,81,3.0,7.0,32,0.00,SCT,SCT,0.00,WeatherDisplay:10.37,2013-06-18 19:33:00,
2013-06-18 14:39:00,89.0,57.8,30.01,ENE,71,6.0,8.0,35,0.00,SCT,SCT,0.00,WeatherDisplay:10.37,2013-06-18 19:39:00,
2013-06-18 14:45:00,91.2,59.0,30.01,NE,45,2.0,8.0,34,0.00,SCT,SCT,0.00,WeatherDisplay:10.37,2013-06-18 19:45:00,
2013-06-18 14:51:00,90.2,58.9,30.00,South,191,2.0,6.0,35,0.00,SCT,SCT,0.00,WeatherDisplay:10.37,2013-06-18 19:51:00,
2013-06-18 14:57:00,89.8,56.0,30.00,SSE,167,6.0,9.0,32,0.00,SCT,SCT,0.00,WeatherDisplay:10.37,2013-06-18 19:57:00,
2013-06-18 15:03:00,90.2,55.4,30.00,South,178,2.0,6.0,31,0.00,SCT,SCT,0.00,WeatherDisplay:10.37,2013-06-18 20:03:00,
2013-06-18 15:09:00,90.1,55.4,30.00,SSW,192,3.0,6.0,31,0.00,SCT,SCT,0.00,WeatherDisplay:10.37,2013-06-18 20:09:00,
2013-06-18 15:15:00,90.5,59.9,29.99,SSE,160,5.0,7.0,36,0.00,SCT,SCT,0.00,WeatherDisplay:10.37,2013-06-18 20:15:00,
2013-06-18 15:21:00,90.4,52.9,29.99,South,188,5.0,7.0,28,0.00,SCT,SCT,0.00,WeatherDisplay:10.37,2013-06-18 20:21:00,
2013-06-18 15:27:00,89.6,56.7,29.99,SW,217,5.0,10.0,33,0.00,SCT,SCT,0.00,WeatherDisplay:10.37,2013-06-18 20:27:00,
2013-06-18 15:33:00,89.5,57.4,29.99,South,172,3.0,8.0,34,0.00,SCT,SCT,0.00,WeatherDisplay:10.37,2013-06-18 20:33:00,
2013-06-18 15:39:00,88.8,57.6,29.99,SSE,162,8.0,10.0,35,0.00,SCT,SCT,0.00,WeatherDisplay:10.37,2013-06-18 20:39:00,
2013-06-18 15:45:00,89.8,58.5,29.99,SE,124,7.0,8.0,35,0.00,SCT,SCT,0.00,WeatherDisplay:10.37,2013-06-18 20:45:00,
2013-06-18 15:51:00,89.8,60.8,29.99,SE,129,5.0,9.0,38,0.00,SCT,SCT,0.00,WeatherDisplay:10.37,2013-06-18 20:51:00,
2013-06-18 15:57:00,90.7,59.3,29.99,SSW,205,5.0,6.0,35,0.00,SCT,SCT,0.00,WeatherDisplay:10.37,2013-06-18 20:57:00,
2013-06-18 16:03:00,89.9,60.1,29.98,ESE,116,5.0,8.0,37,0.00,SCT,SCT,0.00,WeatherDisplay:10.37,2013-06-18 21:03:00,
2013-06-18 16:09:00,89.8,60.1,29.98,East,95,3.0,6.0,37,0.00,SCT,SCT,0.00,WeatherDisplay:10.37,2013-06-18 21:09:00,
2013-06-18 16:15:00,90.0,60.2,29.98,ENE,72,3.0,8.0,37,0.00,SCT,SCT,0.00,WeatherDisplay:10.37,2013-06-18 21:15:00,
2013-06-18 16:21:00,89.2,59.5,29.98,NE,45,6.0,8.0,37,0.00,SCT,SCT,0.00,WeatherDisplay:10.37,2013-06-18 21:21:00,
2013-06-18 16:27:00,90.4,60.6,29.97,East,84,2.0,5.0,37,0.00,SCT,SCT,0.00,WeatherDisplay:10.37,2013-06-18 21:27:00,
2013-06-18 16:33:00,89.5,59.8,29.97,ENE,76,7.0,8.0,37,0.00,SCT,SCT,0.00,WeatherDisplay:10.37,2013-06-18 21:33:00,
2013-06-18 16:39:00,88.9,60.0,29.96,East,91,5.0,5.0,38,0.00,SCT,SCT,0.00,WeatherDisplay:10.37,2013-06-18 21:39:00,
2013-06-18 16:45:00,89.5,59.8,29.96,SE,144,5.0,7.0,37,0.00,SCT,SCT,0.00,WeatherDisplay:10.37,2013-06-18 21:45:00,
2013-06-18 16:51:00,89.4,59.7,29.95,ESE,121,5.0,7.0,37,0.00,SCT,SCT,0.00,WeatherDisplay:10.37,2013-06-18 21:51:00,
2013-06-18 16:57:00,89.2,60.2,29.95,East,101,3.0,6.0,38,0.00,SCT,SCT,0.00,WeatherDisplay:10.37,2013-06-18 21:57:00,
2013-06-18 17:03:00,88.6,60.4,29.95,East,96,5.0,10.0,39,0.00,SCT,SCT,0.00,WeatherDisplay:10.37,2013-06-18 22:03:00,
2013-06-18 17:09:00,88.9,60.7,29.95,SSE,165,3.0,8.0,39,0.00,SCT,SCT,0.00,WeatherDisplay:10.37,2013-06-18 22:09:00,
2013-06-18 17:15:00,89.0,60.8,29.96,East,88,5.0,8.0,39,0.00,SCT,SCT,0.00,WeatherDisplay:10.37,2013-06-18 22:15:00,
2013-06-18 17:21:00,88.7,59.0,29.96,ENE,72,7.0,8.0,37,0.00,SCT,SCT,0.00,WeatherDisplay:10.37,2013-06-18 22:21:00,
2013-06-18 17:27:00,88.1,60.0,29.96,East,91,5.0,6.0,39,0.00,SCT,SCT,0.00,WeatherDisplay:10.37,2013-06-18 22:27:00,
2013-06-18 17:33:00,89.1,60.2,29.96,ESE,112,7.0,10.0,38,0.00,SCT,SCT,0.00,WeatherDisplay:10.37,2013-06-18 22:33:00,
2013-06-18 17:39:00,88.2,59.4,29.95,East,79,6.0,7.0,38,0.00,SCT,SCT,0.00,WeatherDisplay:10.37,2013-06-18 22:39:00,
2013-06-18 17:45:00,88.1,60.0,29.95,East,87,5.0,7.0,39,0.00,SCT,SCT,0.00,WeatherDisplay:10.37,2013-06-18 22:45:00,
2013-06-18 17:51:00,88.1,59.3,29.94,SE,135,5.0,5.0,38,0.00,SCT,SCT,0.00,WeatherDisplay:10.37,2013-06-18 22:51:00,
2013-06-18 17:57:00,88.0,59.9,29.94,ESE,105,5.0,6.0,39,0.00,SCT,SCT,0.00,WeatherDisplay:10.37,2013-06-18 22:57:00,
2013-06-18 18:03:00,88.8,59.9,29.95,SE,141,3.0,7.0,38,0.00,SCT,SCT,0.00,WeatherDisplay:10.37,2013-06-18 23:03:00,
2013-06-18 18:09:00,88.3,60.2,29.95,SE,146,3.0,6.0,39,0.00,SCT,SCT,0.00,WeatherDisplay:10.37,2013-06-18 23:09:00,
2013-06-18 18:15:00,87.8,60.4,29.94,SE,134,6.0,9.0,40,0.00,SCT,SCT,0.00,WeatherDisplay:10.37,2013-06-18 23:15:00,
2013-06-18 18:21:00,87.5,60.2,29.94,ESE,109,1.0,4.0,40,0.00,SCT,SCT,0.00,WeatherDisplay:10.37,2013-06-18 23:21:00,
2013-06-18 18:27:00,88.2,60.8,29.94,East,79,2.0,4.0,40,0.00,SCT,SCT,0.00,WeatherDisplay:10.37,2013-06-18 23:27:00,
2013-06-18 18:33:00,87.1,60.6,29.94,ESE,115,2.0,5.0,41,0.00,SCT,SCT,0.00,WeatherDisplay:10.37,2013-06-18 23:33:00,
2013-06-18 18:39:00,86.9,61.1,29.94,ENE,65,5.0,7.0,42,0.00,SCT,SCT,0.00,WeatherDisplay:10.37,2013-06-18 23:39:00,
2013-06-18 18:45:00,86.4,61.3,29.94,ESE,102,5.0,7.0,43,0.00,SCT,SCT,0.00,WeatherDisplay:10.37,2013-06-18 23:45:00,
2013-06-18 18:51:00,86.2,59.7,29.94,ESE,104,5.0,6.0,41,0.00,SCT,SCT,0.00,WeatherDisplay:10.37,2013-06-18 23:51:00,
2013-06-18 18:57:00,86.0,60.2,29.94,East,98,3.0,7.0,42,0.00,SCT,SCT,0.00,WeatherDisplay:10.37,2013-06-18 23:57:00,
2013-06-18 19:03:00,85.9,60.1,29.95,SE,130,6.0,7.0,42,0.00,SCT,SCT,0.00,WeatherDisplay:10.37,2013-06-19 00:03:00,
2013-06-18 19:09:00,86.4,60.6,29.95,NE,42,0.0,0.0,42,0.00,SCT,SCT,0.00,WeatherDisplay:10.37,2013-06-19 00:09:00,
2013-06-18 19:15:00,85.3,59.6,29.95,South,171,6.0,9.0,42,0.00,SCT,SCT,0.00,WeatherDisplay:10.37,2013-06-19 00:15:00,
2013-06-18 19:21:00,85.0,60.0,29.95,ESE,122,0.0,6.0,43,0.00,SCT,SCT,0.00,WeatherDisplay:10.37,2013-06-19 00:21:00,
2013-06-18 19:27:00,84.3,60.0,29.96,ESE,116,3.0,7.0,44,0.00,SCT,SCT,0.00,WeatherDisplay:10.37,2013-06-19 00:27:00,
2013-06-18 19:33:00,84.5,59.6,29.96,East,97,5.0,6.0,43,0.00,SCT,SCT,0.00,WeatherDisplay:10.37,2013-06-19 00:33:00,
2013-06-18 19:39:00,83.8,59.5,29.96,East,85,7.0,8.0,44,0.00,SCT,SCT,0.00,WeatherDisplay:10.37,2013-06-19 00:39:00,
2013-06-18 19:45:00,84.0,60.4,29.96,East,88,3.0,7.0,45,0.00,SCT,SCT,0.00,WeatherDisplay:10.37,2013-06-19 00:45:00,
2013-06-18 19:51:00,83.7,60.1,29.96,East,101,5.0,6.0,45,0.00,SCT,SCT,0.00,WeatherDisplay:10.37,2013-06-19 00:51:00,
2013-06-18 19:57:00,83.8,59.6,29.96,NE,39,7.0,10.0,44,0.00,SCT,SCT,0.00,WeatherDisplay:10.37,2013-06-19 00:57:00,
2013-06-18 20:03:00,83.0,60.7,29.97,East,86,5.0,7.0,47,0.00,SCT,SCT,0.00,WeatherDisplay:10.37,2013-06-19 01:03:00,
2013-06-18 20:09:00,82.6,60.3,29.97,East,101,0.0,0.0,47,0.00,SCT,SCT,0.00,WeatherDisplay:10.37,2013-06-19 01:09:00,
2013-06-18 20:15:00,82.3,60.6,29.97,East,81,2.0,8.0,48,0.00,SCT,SCT,0.00,WeatherDisplay:10.37,2013-06-19 01:15:00,
2013-06-18 20:21:00,81.8,61.3,29.97,ESE,106,1.0,7.0,50,0.00,SCT,SCT,0.00,WeatherDisplay:10.37,2013-06-19 01:21:00,
2013-06-18 20:27:00,81.7,61.2,29.98,ESE,103,3.0,5.0,50,0.00,SCT,SCT,0.00,WeatherDisplay:10.37,2013-06-19 01:27:00,
2013-06-18 20:33:00,81.4,61.5,29.98,ESE,114,3.0,5.0,51,0.00,SCT,SCT,0.00,WeatherDisplay:10.37,2013-06-19 01:33:00,
2013-06-18 20:39:00,81.0,61.7,29.97,SE,132,0.0,0.0,52,0.00,SCT,SCT,0.00,WeatherDisplay:10.37,2013-06-19 01:39:00,
2013-06-18 20:45:00,80.8,62.0,29.97,ESE,108,0.0,0.0,53,0.00,SCT,SCT,0.00,WeatherDisplay:10.37,2013-06-19 01:45:00,
2013-06-18 20:51:00,80.5,62.3,29.98,East,94,0.0,0.0,54,0.00,SCT,SCT,0.00,WeatherDisplay:10.37,2013-06-19 01:51:00,
2013-06-18 20:57:00,79.9,62.3,29.98,East,85,0.0,0.0,55,0.00,SCT,SCT,0.00,WeatherDisplay:10.37,2013-06-19 01:57:00,
2013-06-18 21:03:00,79.6,62.5,29.98,ESE,118,0.0,0.0,56,0.00,BKN,BKN,0.00,WeatherDisplay:10.37,2013-06-19 02:03:00,
2013-06-18 21:09:00,79.4,62.8,29.98,East,94,0.0,0.0,57,0.00,BKN,BKN,0.00,WeatherDisplay:10.37,2013-06-19 02:09:00,
2013-06-18 21:15:00,79.2,62.6,29.97,East,89,0.0,0.0,57,0.00,BKN,BKN,0.00,WeatherDisplay:10.37,2013-06-19 02:15:00,
2013-06-18 21:21:00,79.0,62.4,29.97,ENE,76,0.0,0.0,57,0.00,BKN,BKN,0.00,WeatherDisplay:10.37,2013-06-19 02:21:00,
2013-06-18 21:27:00,79.0,61.9,29.97,SE,135,2.0,7.0,56,0.00,BKN,BKN,0.00,WeatherDisplay:10.37,2013-06-19 02:27:00,
2013-06-18 21:33:00,78.8,61.7,29.97,SSE,148,3.0,5.0,56,0.00,BKN,BKN,0.00,WeatherDisplay:10.37,2013-06-19 02:33:00,
2013-06-18 21:39:00,78.5,62.0,29.97,ESE,113,2.0,4.0,57,0.00,BKN,BKN,0.00,WeatherDisplay:10.37,2013-06-19 02:39:00,
2013-06-18 21:45:00,78.3,62.3,29.97,East,94,1.0,8.0,58,0.00,BKN,BKN,0.00,WeatherDisplay:10.37,2013-06-19 02:45:00,
2013-06-18 21:51:00,77.9,62.4,29.98,East,87,3.0,5.0,59,0.00,BKN,BKN,0.00,WeatherDisplay:10.37,2013-06-19 02:51:00,
2013-06-18 21:57:00,77.8,63.7,29.98,ESE,107,1.0,4.0,62,0.00,BKN,BKN,0.00,WeatherDisplay:10.37,2013-06-19 02:57:00,
2013-06-18 22:03:00,77.6,64.0,29.98,SSE,155,3.0,5.0,63,0.00,BKN,BKN,0.00,WeatherDisplay:10.37,2013-06-19 03:03:00,
2013-06-18 22:30:00,76.8,64.6,29.98,East,94,5.0,5.0,66,0.00,BKN,BKN,0.00,WeatherDisplay:10.37,2013-06-19 03:30:00,
2013-06-18 22:36:00,76.7,64.9,29.98,ESE,110,0.0,7.0,67,0.00,BKN,BKN,0.00,WeatherDisplay:10.37,2013-06-19 03:36:00,
2013-06-18 22:42:00,76.5,64.7,29.99,ESE,118,0.0,0.0,67,0.00,BKN,BKN,0.00,WeatherDisplay:10.37,2013-06-19 03:42:00,
2013-06-18 22:48:00,76.5,64.7,29.99,SE,135,5.0,6.0,67,0.00,BKN,BKN,0.00,WeatherDisplay:10.37,2013-06-19 03:48:00,
2013-06-18 22:54:00,76.3,64.9,29.99,SE,132,3.0,5.0,68,0.00,BKN,BKN,0.00,WeatherDisplay:10.37,2013-06-19 03:54:00,
2013-06-18 23:00:00,76.1,64.7,29.99,East,100,0.0,5.0,68,0.00,BKN,BKN,0.00,WeatherDisplay:10.37,2013-06-19 04:00:00,
2013-06-18 23:03:00,76.1,64.7,30.00,East,95,0.0,4.0,68,0.00,OVC,OVC,0.00,WeatherDisplay:10.37,2013-06-19 04:03:00,
2013-06-18 23:09:00,76.1,64.7,30.00,SE,125,2.0,5.0,68,0.00,OVC,OVC,0.00,WeatherDisplay:10.37,2013-06-19 04:09:00,
2013-06-18 23:15:00,76.1,64.3,30.00,SE,139,1.0,9.0,67,0.00,OVC,OVC,0.00,WeatherDisplay:10.37,2013-06-19 04:15:00,
2013-06-18 23:21:00,76.1,64.3,30.00,SSE,161,2.0,7.0,67,0.00,OVC,OVC,0.00,WeatherDisplay:10.37,2013-06-19 04:21:00,
2013-06-18 23:27:00,76.1,64.3,30.01,South,170,5.0,7.0,67,0.00,OVC,OVC,0.00,WeatherDisplay:10.37,2013-06-19 04:27:00,
2013-06-18 23:33:00,76.2,64.4,30.01,South,181,0.0,5.0,67,0.00,OVC,OVC,0.00,WeatherDisplay:10.37,2013-06-19 04:33:00,
2013-06-18 23:36:00,76.1,64.4,30.01,WSW,255,12.0,20.0,67,0.00,OVC,OVC,0.00,WeatherDisplay:10.37,2013-06-19 04:36:00,
2013-06-18 23:42:00,76.0,64.2,30.02,West,270,20.0,20.0,67,0.00,OVC,OVC,0.00,WeatherDisplay:10.37,2013-06-19 04:42:00,
2013-06-18 23:45:00,70.7,62.4,30.02,WNW,285,22.0,26.0,75,0.00,OVC,OVC,0.00,WeatherDisplay:10.37,2013-06-19 04:45:00,
2013-06-18 23:51:00,69.5,61.9,30.04,WNW,295,10.0,14.0,77,0.00,OVC,OVC,0.00,WeatherDisplay:10.37,2013-06-19 04:51:00,
2013-06-18 23:57:00,68.8,61.3,30.04,WNW,282,10.0,14.0,77,0.00,OVC,OVC,0.00,WeatherDisplay:10.37,2013-06-19 04:57:00,